Time,TemperatureF,DewpointF,PressureIn,WindDirection,WindDirectionDegrees,WindSpeedMPH,WindSpeedGustMPH,Humidity,HourlyPrecipIn,Conditions,Clouds,dailyrainin,SoftwareType,DateUTC
2013-03-19 00:01:00,69.0,69.0,29.72,ESE,115,3.0,10.0,99,0.00,,,1.90,,2013-03-19 06:01:00,
2013-03-19 00:11:00,69.0,69.0,29.72,ESE,115,3.0,10.0,99,0.00,,,1.90,,2013-03-19 06:11:00,
2013-03-19 00:21:00,69.0,69.0,29.71,ENE,72,2.0,7.0,99,0.00,,,1.87,,2013-03-19 06:21:00,
2013-03-19 00:31:00,68.0,67.0,29.70,East,79,2.0,8.0,98,0.00,,,1.83,,2013-03-19 06:31:00,
2013-03-19 00:42:00,68.0,67.0,29.70,East,79,2.0,8.0,98,0.00,,,1.83,,2013-03-19 06:42:00,
2013-03-19 00:52:00,68.0,67.0,29.70,East,98,2.0,5.0,98,0.00,,,1.74,,2013-03-19 06:52:00,
2013-03-19 01:01:00,68.0,68.0,29.70,East,89,1.0,4.0,99,0.00,,,1.83,,2013-03-19 07:01:00,
2013-03-19 01:11:00,68.0,68.0,29.70,East,89,1.0,4.0,99,0.00,,,1.83,,2013-03-19 07:11:00,
2013-03-19 01:21:00,68.0,68.0,29.70,East,88,2.0,4.0,99,0.00,,,1.89,,2013-03-19 07:21:00,
2013-03-19 01:32:00,68.0,68.0,29.69,East,90,2.0,4.0,99,0.00,,,1.88,,2013-03-19 07:32:00,
2013-03-19 01:41:00,68.0,68.0,29.69,East,90,2.0,4.0,99,0.00,,,1.88,,2013-03-19 07:41:00,
2013-03-19 01:52:00,68.0,68.0,29.70,East,90,2.0,6.0,99,0.00,,,1.86,,2013-03-19 07:52:00,
2013-03-19 02:02:00,68.0,67.0,29.70,SE,135,2.0,6.0,98,0.00,,,1.86,,2013-03-19 08:02:00,
2013-03-19 02:11:00,68.0,67.0,29.70,SE,135,2.0,6.0,98,0.00,,,1.86,,2013-03-19 08:11:00,
2013-03-19 02:21:00,68.0,67.0,29.69,ESE,110,4.0,6.0,97,0.00,,,1.85,,2013-03-19 08:21:00,
2013-03-19 02:31:00,68.0,67.0,29.70,SE,125,2.0,6.0,97,0.00,,,1.88,,2013-03-19 08:31:00,
2013-03-19 02:41:00,68.0,67.0,29.70,SE,125,2.0,6.0,97,0.00,,,1.88,,2013-03-19 08:41:00,
2013-03-19 02:52:00,68.0,67.0,29.70,ESE,105,2.0,5.0,97,0.00,,,1.56,,2013-03-19 08:52:00,
2013-03-19 03:01:00,67.0,67.0,29.70,SE,134,3.0,8.0,99,0.00,,,1.72,,2013-03-19 09:01:00,
2013-03-19 03:11:00,67.0,67.0,29.70,SE,134,3.0,8.0,99,0.00,,,1.72,,2013-03-19 09:11:00,
2013-03-19 03:22:00,66.0,66.0,29.69,SE,134,3.0,5.0,99,0.00,,,1.77,,2013-03-19 09:22:00,
2013-03-19 03:32:00,66.0,66.0,29.69,SE,135,4.0,6.0,99,0.00,,,1.83,,2013-03-19 09:32:00,
2013-03-19 03:42:00,66.0,66.0,29.69,SE,135,4.0,6.0,99,0.00,,,1.83,,2013-03-19 09:42:00,
2013-03-19 03:53:00,65.0,65.0,29.69,SE,143,4.0,7.0,99,0.00,,,1.91,,2013-03-19 09:53:00,
2013-03-19 04:03:00,65.0,65.0,29.68,SE,130,2.0,6.0,99,0.00,,,1.84,,2013-03-19 10:03:00,
2013-03-19 04:12:00,65.0,65.0,29.68,SE,130,2.0,6.0,99,0.00,,,1.84,,2013-03-19 10:12:00,
2013-03-19 04:22:00,65.0,65.0,29.69,SSE,161,3.0,8.0,99,0.00,,,1.69,,2013-03-19 10:22:00,
2013-03-19 04:32:00,66.0,66.0,29.69,SE,138,4.0,9.0,99,0.00,,,1.68,,2013-03-19 10:32:00,
2013-03-19 04:41:00,66.0,66.0,29.69,SE,138,4.0,9.0,99,0.00,,,1.68,,2013-03-19 10:41:00,
2013-03-19 04:52:00,66.0,66.0,29.69,SE,133,4.0,10.0,99,0.00,,,1.85,,2013-03-19 10:52:00,
2013-03-19 05:02:00,66.0,66.0,29.69,ESE,117,4.0,10.0,99,0.00,,,1.81,,2013-03-19 11:02:00,
2013-03-19 05:11:00,66.0,66.0,29.69,ESE,117,4.0,10.0,99,0.00,,,1.81,,2013-03-19 11:11:00,
2013-03-19 05:22:00,66.0,66.0,29.69,ESE,114,4.0,10.0,99,0.00,,,1.72,,2013-03-19 11:22:00,
2013-03-19 05:31:00,66.0,66.0,29.70,East,89,5.0,9.0,99,0.00,,,1.68,,2013-03-19 11:31:00,
2013-03-19 05:41:00,66.0,66.0,29.70,East,89,5.0,9.0,99,0.00,,,1.68,,2013-03-19 11:41:00,
2013-03-19 05:52:00,66.0,66.0,29.71,East,101,5.0,9.0,99,0.00,,,1.77,,2013-03-19 11:52:00,
2013-03-19 06:02:00,65.0,65.0,29.72,ENE,76,2.0,8.0,99,0.00,,,1.70,,2013-03-19 12:02:00,
2013-03-19 06:12:00,65.0,65.0,29.72,ENE,72,3.0,8.0,99,0.00,,,1.87,,2013-03-19 12:12:00,
2013-03-19 06:22:00,65.0,65.0,29.72,ENE,72,3.0,8.0,99,0.00,,,1.87,,2013-03-19 12:22:00,
2013-03-19 06:32:00,67.0,67.0,29.72,ENE,77,3.0,8.0,99,0.00,,,1.86,,2013-03-19 12:32:00,
2013-03-19 06:42:00,67.0,67.0,29.72,ENE,77,3.0,8.0,99,0.00,,,1.86,,2013-03-19 12:42:00,
2013-03-19 06:52:00,68.0,67.0,29.73,ENE,72,4.0,8.0,95,0.00,,,1.69,,2013-03-19 12:52:00,
2013-03-19 07:01:00,70.0,68.0,29.74,East,101,4.0,9.0,93,0.00,,,1.79,,2013-03-19 13:01:00,
2013-03-19 07:11:00,70.0,68.0,29.74,East,101,4.0,9.0,93,0.00,,,1.79,,2013-03-19 13:11:00,
2013-03-19 07:22:00,71.0,68.0,29.75,ESE,118,5.0,10.0,89,0.00,,,1.73,,2013-03-19 13:22:00,
2013-03-19 07:31:00,72.0,68.0,29.75,SE,128,4.0,8.0,88,0.00,,,1.71,,2013-03-19 13:31:00,
2013-03-19 07:41:00,72.0,68.0,29.75,SE,128,4.0,8.0,88,0.00,,,1.71,,2013-03-19 13:41:00,
2013-03-19 07:52:00,73.0,69.0,29.75,East,90,2.0,11.0,87,0.00,,,1.83,,2013-03-19 13:52:00,
2013-03-19 08:01:00,74.0,70.0,29.75,NNE,26,4.0,11.0,87,0.00,,,1.78,,2013-03-19 14:01:00,
2013-03-19 08:11:00,74.0,70.0,29.75,NNE,26,4.0,11.0,87,0.00,,,1.78,,2013-03-19 14:11:00,
2013-03-19 08:21:00,75.0,70.0,29.75,NE,38,2.0,11.0,85,0.00,,,1.70,,2013-03-19 14:21:00,
2013-03-19 08:31:00,78.0,71.0,29.75,NNE,15,2.0,5.0,80,0.00,,,1.85,,2013-03-19 14:31:00,
2013-03-19 08:41:00,78.0,71.0,29.75,NNE,15,2.0,5.0,80,0.00,,,1.85,,2013-03-19 14:41:00,
2013-03-19 08:52:00,77.0,70.0,29.75,SE,124,4.0,11.0,80,0.00,,,1.61,,2013-03-19 14:52:00,
2013-03-19 09:01:00,78.0,70.0,29.75,East,83,3.0,9.0,77,0.00,,,1.75,,2013-03-19 15:01:00,
2013-03-19 09:11:00,78.0,70.0,29.75,East,83,3.0,9.0,77,0.00,,,1.75,,2013-03-19 15:11:00,
2013-03-19 09:22:00,79.0,72.0,29.74,ENE,68,4.0,10.0,78,0.00,,,2.01,,2013-03-19 15:22:00,
2013-03-19 09:33:00,78.0,71.0,29.75,NE,36,6.0,15.0,78,0.00,,,1.92,,2013-03-19 15:33:00,
2013-03-19 09:42:00,78.0,71.0,29.75,NE,36,6.0,15.0,78,0.00,,,1.92,,2013-03-19 15:42:00,
2013-03-19 09:53:00,79.0,71.0,29.73,North,9,4.0,15.0,77,0.00,,,1.92,,2013-03-19 15:53:00,
2013-03-19 10:03:00,79.0,71.0,29.74,NNE,25,2.0,15.0,76,0.00,,,1.59,,2013-03-19 16:03:00,
2013-03-19 10:12:00,79.0,71.0,29.74,NNE,25,2.0,15.0,76,0.00,,,1.59,,2013-03-19 16:12:00,
2013-03-19 10:23:00,80.0,71.0,29.73,NE,35,6.0,13.0,75,0.00,,,1.65,,2013-03-19 16:23:00,
2013-03-19 10:33:00,80.0,71.0,29.73,NNE,16,6.0,17.0,75,0.00,,,1.85,,2013-03-19 16:33:00,
2013-03-19 10:43:00,80.0,71.0,29.73,NNE,16,6.0,17.0,75,0.00,,,1.85,,2013-03-19 16:43:00,
2013-03-19 10:53:00,80.0,72.0,29.72,NNE,16,10.0,21.0,76,0.00,,,1.69,,2013-03-19 16:53:00,
2013-03-19 11:02:00,80.0,72.0,29.72,NE,44,15.0,20.0,76,0.00,,,1.87,,2013-03-19 17:02:00,
2013-03-19 11:13:00,80.0,72.0,29.72,NE,41,9.0,17.0,76,0.00,,,2.03,,2013-03-19 17:13:00,
2013-03-19 11:23:00,80.0,72.0,29.72,NE,41,9.0,17.0,76,0.00,,,2.03,,2013-03-19 17:23:00,
2013-03-19 11:34:00,80.0,72.0,29.71,NNE,25,6.0,19.0,76,0.00,,,0.00,,2013-03-19 17:34:00,
2013-03-19 11:43:00,80.0,72.0,29.71,NNE,25,6.0,19.0,76,0.00,,,0.00,,2013-03-19 17:43:00,
2013-03-19 11:53:00,80.0,71.0,29.71,North,6,7.0,17.0,75,0.00,,,0.00,,2013-03-19 17:53:00,
2013-03-19 12:02:00,81.0,72.0,29.70,NE,39,9.0,18.0,74,0.00,,,0.00,,2013-03-19 18:02:00,
2013-03-19 12:12:00,81.0,72.0,29.70,NE,39,9.0,18.0,74,0.00,,,0.00,,2013-03-19 18:12:00,
2013-03-19 12:22:00,81.0,72.0,29.70,NE,44,11.0,22.0,74,0.00,,,0.00,,2013-03-19 18:22:00,
2013-03-19 12:33:00,81.0,72.0,29.70,NE,46,8.0,21.0,74,0.00,,,0.00,,2013-03-19 18:33:00,
2013-03-19 12:42:00,81.0,72.0,29.70,NE,46,8.0,21.0,74,0.00,,,0.00,,2013-03-19 18:42:00,
2013-03-19 12:53:00,81.0,72.0,29.70,NNE,19,8.0,19.0,74,0.00,,,0.00,,2013-03-19 18:53:00,
2013-03-19 13:01:00,81.0,71.0,29.69,NNE,26,13.0,21.0,72,0.00,,,0.00,,2013-03-19 19:01:00,
2013-03-19 13:11:00,81.0,71.0,29.69,NNE,26,13.0,21.0,72,0.00,,,0.00,,2013-03-19 19:11:00,
2013-03-19 13:21:00,81.0,72.0,29.67,NNE,26,9.0,20.0,73,0.00,,,0.00,,2013-03-19 19:21:00,
2013-03-19 13:32:00,82.0,71.0,29.67,NNE,30,7.0,17.0,70,0.00,,,0.00,,2013-03-19 19:32:00,
2013-03-19 13:41:00,82.0,71.0,29.67,NNE,30,7.0,17.0,70,0.00,,,0.00,,2013-03-19 19:41:00,
2013-03-19 13:52:00,83.0,73.0,29.66,NNE,22,10.0,18.0,71,0.00,,,0.00,,2013-03-19 19:52:00,
2013-03-19 14:01:00,83.0,72.0,29.65,NE,38,9.0,17.0,70,0.00,,,0.00,,2013-03-19 20:01:00,
2013-03-19 14:11:00,83.0,73.0,29.65,NNE,33,12.0,20.0,71,0.00,,,0.00,,2013-03-19 20:11:00,
2013-03-19 14:22:00,83.0,73.0,29.65,NNE,33,12.0,20.0,71,0.00,,,0.00,,2013-03-19 20:22:00,
2013-03-19 14:42:00,84.0,73.0,29.64,NNE,31,6.0,18.0,69,0.00,,,0.00,,2013-03-19 20:42:00,
2013-03-19 14:52:00,85.0,73.0,29.63,ENE,57,8.0,15.0,67,0.00,,,0.00,,2013-03-19 20:52:00,
2013-03-19 15:01:00,84.0,72.0,29.63,NNE,26,5.0,17.0,68,0.00,,,0.00,,2013-03-19 21:01:00,
2013-03-19 15:11:00,83.0,72.0,29.62,NNE,17,8.0,19.0,70,0.00,,,0.00,,2013-03-19 21:11:00,
2013-03-19 15:22:00,83.0,72.0,29.62,NNE,17,8.0,19.0,70,0.00,,,0.00,,2013-03-19 21:22:00,
2013-03-19 15:32:00,84.0,73.0,29.62,NNE,30,9.0,16.0,69,0.00,,,0.00,,2013-03-19 21:32:00,
2013-03-19 15:42:00,84.0,73.0,29.62,NNE,30,9.0,16.0,69,0.00,,,0.00,,2013-03-19 21:42:00,
2013-03-19 15:53:00,83.0,73.0,29.62,NNE,23,8.0,17.0,71,0.00,,,0.00,,2013-03-19 21:53:00,
2013-03-19 16:02:00,82.0,72.0,29.62,NE,36,11.0,21.0,73,0.00,,,0.00,,2013-03-19 22:02:00,
2013-03-19 16:12:00,80.0,72.0,29.62,NNE,24,10.0,15.0,77,0.00,,,0.00,,2013-03-19 22:12:00,
2013-03-19 16:22:00,80.0,72.0,29.62,NNE,24,10.0,15.0,77,0.00,,,0.00,,2013-03-19 22:22:00,
2013-03-19 16:32:00,81.0,73.0,29.62,North,2,7.0,15.0,76,0.00,,,0.00,,2013-03-19 22:32:00,
2013-03-19 16:42:00,78.0,72.0,29.63,North,7,9.0,15.0,82,0.00,,,0.00,,2013-03-19 22:42:00,
2013-03-19 16:53:00,78.0,72.0,29.63,North,7,9.0,15.0,82,0.00,,,0.00,,2013-03-19 22:53:00,
2013-03-19 17:02:00,77.0,72.0,29.64,NNE,32,7.0,16.0,86,0.00,,,0.00,,2013-03-19 23:02:00,
2013-03-19 17:11:00,76.0,72.0,29.64,NNE,17,4.0,15.0,86,0.00,,,0.00,,2013-03-19 23:11:00,
2013-03-19 17:21:00,76.0,72.0,29.64,NNE,17,4.0,15.0,86,0.00,,,0.00,,2013-03-19 23:21:00,
2013-03-19 17:31:00,75.0,71.0,29.65,NE,37,7.0,16.0,88,0.00,,,0.00,,2013-03-19 23:31:00,
2013-03-19 17:42:00,75.0,71.0,29.65,NE,37,7.0,16.0,88,0.00,,,0.00,,2013-03-19 23:42:00,
2013-03-19 17:52:00,74.0,71.0,29.66,NNE,28,4.0,12.0,90,0.00,,,0.00,,2013-03-19 23:52:00,
2013-03-19 18:01:00,74.0,71.0,29.65,NE,35,5.0,11.0,91,0.00,,,0.00,,2013-03-20 00:01:00,
2013-03-19 18:11:00,74.0,71.0,29.65,NE,35,5.0,11.0,91,0.00,,,0.00,,2013-03-20 00:11:00,
2013-03-19 18:21:00,73.0,71.0,29.65,NNE,28,3.0,10.0,93,0.00,,,0.00,,2013-03-20 00:21:00,
2013-03-19 18:32:00,73.0,71.0,29.66,NE,39,4.0,8.0,95,0.00,,,0.00,,2013-03-20 00:32:00,
2013-03-19 18:42:00,73.0,71.0,29.66,NE,39,4.0,8.0,95,0.00,,,0.00,,2013-03-20 00:42:00,
2013-03-19 18:52:00,73.0,72.0,29.67,NE,43,4.0,6.0,96,0.00,,,0.00,,2013-03-20 00:52:00,
2013-03-19 19:01:00,73.0,72.0,29.67,NE,38,3.0,8.0,97,0.00,,,0.00,,2013-03-20 01:01:00,
2013-03-19 19:11:00,73.0,72.0,29.68,NNE,28,4.0,7.0,98,0.00,,,0.00,,2013-03-20 01:11:00,
2013-03-19 19:21:00,73.0,72.0,29.68,NNE,28,4.0,7.0,98,0.00,,,0.00,,2013-03-20 01:21:00,
2013-03-19 19:32:00,72.0,72.0,29.68,NNE,31,5.0,8.0,99,0.00,,,0.00,,2013-03-20 01:32:00,
2013-03-19 19:42:00,72.0,72.0,29.68,NNE,31,5.0,8.0,99,0.00,,,0.00,,2013-03-20 01:42:00,
2013-03-19 19:52:00,72.0,72.0,29.69,NE,42,7.0,9.0,99,0.00,,,0.00,,2013-03-20 01:52:00,
2013-03-19 20:01:00,72.0,72.0,29.69,NE,35,3.0,10.0,99,0.00,,,0.00,,2013-03-20 02:01:00,
2013-03-19 20:11:00,72.0,72.0,29.69,NE,35,3.0,10.0,99,0.00,,,0.00,,2013-03-20 02:11:00,
2013-03-19 20:21:00,72.0,72.0,29.69,ENE,67,2.0,4.0,99,0.00,,,0.00,,2013-03-20 02:21:00,
2013-03-19 20:31:00,71.0,71.0,29.70,ESE,106,2.0,3.0,99,0.00,,,0.00,,2013-03-20 02:31:00,
2013-03-19 20:42:00,71.0,71.0,29.70,ESE,106,2.0,3.0,99,0.00,,,0.00,,2013-03-20 02:42:00,
2013-03-19 20:51:00,71.0,70.0,29.71,SE,137,3.0,4.0,97,0.00,,,0.00,,2013-03-20 02:51:00,
2013-03-19 20:52:00,71.0,70.0,29.70,SE,134,2.0,7.0,97,0.00,,,0.00,,2013-03-20 02:52:00,
2013-03-19 21:01:00,71.0,70.0,29.70,SE,137,2.0,4.0,97,0.00,,,0.00,,2013-03-20 03:01:00,
2013-03-19 21:11:00,71.0,70.0,29.71,SE,137,3.0,4.0,97,0.00,,,0.00,,2013-03-20 03:11:00,
2013-03-19 21:21:00,71.0,70.0,29.71,SE,137,3.0,4.0,97,0.00,,,0.00,,2013-03-20 03:21:00,
2013-03-19 21:32:00,71.0,70.0,29.71,SE,137,3.0,4.0,97,0.00,,,0.00,,2013-03-20 03:32:00,
2013-03-19 21:42:00,71.0,70.0,29.71,SE,137,3.0,4.0,97,0.00,,,0.00,,2013-03-20 03:42:00,